Regional Weather Roundup
Issued by NWS

Home | Current Version | Previous Version | Graphics & Text | Print | Product List | Glossary On
Versions: 1 2 3 4 5 6 7 8 9 10 11 12 13 14 15 16 17 18 19 20 21 22 23 24 25 26 27 28 29 30 31 32 33 34 35 36 37 38 39 40 41 42 43 44 45 46 47 48 49 50
000
ASUS43 KLSX 210859
RWRMO

WEATHER SUMMARY FOR MISSOURI
NATIONAL WEATHER SERVICE SPRINGFIELD MO
300 AM CST FRI NOV 21 2014

NOTE: "FAIR" INDICATES FEW OR NO CLOUDS BELOW 12,000 FEET WITH NO
       SIGNIFICANT WEATHER AND/OR OBSTRUCTIONS TO VISIBILITY.
       CURRENT SKY AND/OR WEATHER CONDITIONS ARE NOT AVAILABLE FOR
       CHILLICOTHE AND FARMINGTON.

MOZ001>031-035>038-043-044-053-054-211000-
...NORTHERN AND WESTERN MISSOURI...

CITY           SKY/WX    TMP DP  RH WIND       PRES   REMARKS
KANSAS CTY INT CLEAR     24  16  71 E9        30.26S WCI  14
KANSAS C DTWN  CLEAR     26  17  68 E8        30.27S WCI  18
LEE`S SUMMIT   CLEAR     24  16  71 E9        30.26S WCI  14
ST JOSEPH      CLEAR     22  15  75 SE6       30.29R WCI  14
CHILLICOTHE      N/A     21  13  71 VRB3      30.32F
KIRKSVILLE     MOCLDY    17  11  77 E7        30.33F WCI   8

$$
MOZ066>068-077>081-088>096-101>105-211000-
...SOUTHWEST MISSOURI...

CITY           SKY/WX    TMP DP  RH WIND       PRES   REMARKS
SPRINGFIELD    PTCLDY    36  22  56 SE8       30.20S WCI  30
JOPLIN         MOCLDY    34  24  67 E6        30.18S WCI  29

$$
MOZ032>034-039>042-045>050-055>058-069>072-211000-
...CENTRAL MISSOURI...

CITY           SKY/WX    TMP DP  RH WIND       PRES   REMARKS
COLUMBIA       CLEAR     24  16  71 E9        30.31S WCI  14
JEFFERSON CITY CLEAR     21  16  81 SE6       30.33S WCI  13
ROLLA          CLEAR     26  17  68 E10       30.27S WCI  16
SEDALIA        CLEAR     25  17  72 E7        30.29S WCI  17
WARRENSBURG    CLEAR     23  18  80 NE6       30.28S WCI  16
OSAGE BEACH    CLEAR     27  18  69 E6        30.27S WCI  20

$$
MOZ051-052-059>065-211000-
...EAST CENTRAL MISSOURI...

CITY           SKY/WX    TMP DP  RH WIND       PRES   REMARKS
ST LOUIS INTL  NOT AVBL
SPIRIT OF STL  CLEAR     18  16  92 CALM      30.37S
ST CHARLES     CLEAR     21  13  71 E8        30.38S WCI  11

$$
MOZ072>076-082>087-097>100-106>115-211000-
...SOUTH CENTRAL AND SOUTHEAST MISSOURI...

CITY           SKY/WX    TMP DP  RH WIND       PRES   REMARKS
CAPE GIRARDEAU MOCLDY    29  23  78 NE6       30.36R WCI  23
FARMINGTON     CLEAR     25  19  80 CALM      30.34R
POPLAR BLUFF   CLOUDY    35  26  69 NE6       30.33R
WEST PLAINS    MOCLDY    32  22  66 NE6       30.27R WCI  26

$$


USA.gov is the U.S. government's official web portal to all federal, state and local government web resources and services.